TimeCST,TemperatureF,Dew PointF,Humidity,Sea Level PressureIn,VisibilityMPH,Wind Direction,Wind SpeedMPH,Gust SpeedMPH,PrecipitationIn,Events,Conditions,WindDirDegrees,DateUTC
12:53 AM,45.0,32.0,60,30.12,10.0,SE,11.5,-,N/A,,Clear,140,2013-11-03 05:53:00
1:53 AM,43.0,32.0,65,30.12,10.0,SSE,9.2,-,N/A,,Clear,160,2013-11-03 06:53:00
1:53 AM,45.0,32.0,60,30.10,10.0,SSE,11.5,-,N/A,,Clear,150,2013-11-03 07:53:00
2:53 AM,43.0,33.1,68,30.09,10.0,SSE,12.7,-,N/A,,Clear,160,2013-11-03 08:53:00
3:53 AM,43.0,34.0,71,30.08,10.0,SSE,13.8,-,N/A,,Clear,160,2013-11-03 09:53:00
4:53 AM,43.0,33.1,68,30.06,10.0,SSE,16.1,-,N/A,,Clear,160,2013-11-03 10:53:00
5:53 AM,42.1,33.1,70,30.06,10.0,SSE,12.7,-,N/A,,Clear,160,2013-11-03 11:53:00
6:53 AM,44.1,33.1,65,30.05,10.0,SSE,13.8,-,N/A,,Scattered Clouds,160,2013-11-03 12:53:00
7:53 AM,46.9,33.1,59,30.04,10.0,South,17.3,27.6,N/A,,Mostly Cloudy,170,2013-11-03 13:53:00
8:53 AM,48.9,34.0,56,30.03,10.0,South,20.7,29.9,N/A,,Mostly Cloudy,170,2013-11-03 14:53:00
9:53 AM,52.0,35.1,53,30.01,10.0,South,24.2,31.1,N/A,,Mostly Cloudy,170,2013-11-03 15:53:00
10:53 AM,54.0,36.0,51,29.99,10.0,South,27.6,34.5,N/A,,Mostly Cloudy,180,2013-11-03 16:53:00
11:53 AM,57.9,37.9,47,29.96,10.0,South,25.3,33.4,N/A,,Mostly Cloudy,170,2013-11-03 17:53:00
12:53 PM,59.0,37.0,44,29.89,10.0,South,28.8,38.0,N/A,,Mostly Cloudy,170,2013-11-03 18:53:00
1:53 PM,62.1,36.0,38,29.85,10.0,South,32.2,42.6,N/A,,Mostly Cloudy,180,2013-11-03 19:53:00
2:53 PM,64.0,37.0,37,29.81,10.0,South,28.8,41.4,N/A,,Mostly Cloudy,170,2013-11-03 20:53:00
3:53 PM,61.0,37.0,41,29.83,10.0,South,24.2,40.3,N/A,,Mostly Cloudy,170,2013-11-03 21:53:00
4:53 PM,59.0,37.0,44,29.83,10.0,South,26.5,34.5,N/A,,Mostly Cloudy,170,2013-11-03 22:53:00
5:53 PM,57.0,37.0,47,29.83,10.0,South,24.2,34.5,N/A,,Mostly Cloudy,170,2013-11-03 23:53:00
6:53 PM,55.9,37.9,51,29.84,10.0,SSE,24.2,38.0,N/A,,Mostly Cloudy,160,2013-11-04 00:53:00
7:53 PM,55.0,37.9,53,29.85,10.0,South,27.6,34.5,N/A,,Mostly Cloudy,170,2013-11-04 01:53:00
8:53 PM,55.0,37.9,53,29.83,10.0,South,26.5,35.7,N/A,,Scattered Clouds,170,2013-11-04 02:53:00
9:53 PM,54.0,39.0,57,29.84,10.0,South,24.2,35.7,N/A,,Scattered Clouds,170,2013-11-04 03:53:00
10:53 PM,54.0,39.9,59,29.85,10.0,South,24.2,34.5,N/A,,Mostly Cloudy,170,2013-11-04 04:53:00